Tracking 29606 objects as of 19-Sep-2024
HD Live streaming from Space Station
objects crossing your sky now

FENGYUN 1C DEB

Track FENGYUN 1C DEB now!
10-day predictions


NORAD ID: 31064
Int'l Code: 1999-025BFJ
Perigee: 654.0 km
Apogee: 1,005.8 km
Inclination: 98.5 °
Period: 101.4 minutes
Semi major axis: 7200 km
RCS: 0.0138 m2 (small)
Launch date: May 10, 1999
Source: People's Republic of China (PRC)
Launch site: Taiyaun Space Center, China (TSC)

Note: This is SATELLITE DEBRIS
Your satellite tracking list
Your tracking list is empty




NASA's NSSDC Master Catalog

Two Line Element Set (TLE):
1 31064U 99025BFJ 24262.22357704  .00001699  00000-0  59899-3 0  9993
2 31064  98.5324 252.2931 0244278 229.8769 194.4159 14.20757932908540
Source of the keplerian elements: AFSPC